Location: Newark
(48.1500°N, 2.9667°W)
Time: 11:30:44
(UTC+00:00)

Transit 2A - Visible Passes

Search period start: 24 January 2020 00:00
Search period end: 03 February 2020 00:00
Orbit: 601 x 958 km, 66.7° (Epoch: 24 January)

Date Brightness Start Highest point End Pass type
(mag) Time Alt. Az. Time Alt. Az. Time Alt. Az.
24 Jan 8.5 03:48:48 15° E 03:48:48 15° E 03:49:52 10° ESE visible
24 Jan 6.0 05:29:20 53° SW 05:29:20 53° SW 05:34:01 10° SSE visible
25 Jan 6.9 04:56:47 38° SSE 04:56:47 38° SSE 05:00:03 10° SSE visible
25 Jan 7.8 06:37:19 12° WSW 06:37:21 12° WSW 06:39:11 10° SW visible
26 Jan 8.0 04:24:19 20° SE 04:24:19 20° SE 04:25:54 10° SE visible
26 Jan 7.6 06:04:51 16° SW 06:04:51 16° SW 06:06:49 10° SSW visible
26 Jan 7.5 19:00:56 10° SSE 19:02:08 16° SSE 19:02:08 16° SSE visible
27 Jan 7.9 05:32:29 15° SSW 05:32:29 15° SSW 05:33:41 10° SSW visible
27 Jan 7.3 18:27:50 10° SSE 18:29:48 15° ESE 18:29:48 15° ESE visible
27 Jan 7.6 20:08:46 10° SW 20:10:22 22° SW 20:10:22 22° SW visible
28 Jan 8.4 05:00:12 10° S 05:00:12 10° S 05:00:14 10° S visible
28 Jan 7.6 17:56:02 10° ESE 17:56:37 10° ESE 17:57:12 10° E visible
28 Jan 6.0 19:34:35 10° SSW 19:37:58 53° SSW 19:37:58 53° SSW visible
29 Jan 5.5 19:00:36 10° SSW 19:04:53 57° ESE 19:05:31 51° E visible
29 Jan 8.3 20:44:49 10° W 20:46:03 16° W 20:46:03 16° W visible
30 Jan 6.1 18:26:48 10° S 18:30:51 38° ESE 18:32:58 23° ENE visible
30 Jan 7.2 20:10:09 10° WSW 20:13:30 30° WNW 20:13:30 30° WNW visible
31 Jan 6.7 17:53:15 10° SSE 17:56:52 25° ESE 18:00:21 10° ENE visible
31 Jan 6.5 19:35:37 10° WSW 19:39:46 42° NW 19:40:52 35° N visible
01 Feb 5.9 19:01:15 10° SW 19:05:34 61° NW 19:08:10 23° NNE visible
01 Feb 8.4 20:47:19 10° WNW 20:48:41 13° NW 20:48:41 13° NW visible
02 Feb 5.5 18:27:03 10° SW 18:31:24 88° NW 18:35:24 12° NE visible
02 Feb 7.9 20:12:16 10° WNW 20:15:13 17° NNW 20:15:55 17° NNW visible
